Location: Linton
(52.0940°N, 0.2850°E)
Time: 02:53:25
(UTC+00:00)

ISS - Pass Details

Date: 12 November 2017
Orbit: 402 x 407 km, 51.6° (Epoch: 21 November)

Event Time Altitude Azimuth Distance (km) Brightness Sun altitude
Exits shadow 06:25:12 - 270° (W) 1,514 -1.5 -7.7°
Reaches altitude 10° 06:25:21 10° 269° (W) 1,457 -1.6 -7.7°
Maximum altitude 06:28:08 26° 211° (SSW) 840 -2.3 -7.3°
Drops below altitude 10° 06:30:53 10° 153° (SSE) 1,451 -0.3 -6.9°
Sets 06:33:09 0° 140° (SE) 2,307 1.2 -6.5°
